Location: Chippewa Lake
(41.0698°N, 81.9010°W)
Time: 22:00:39
(UTC+00:00)

ARGOS Delta rocket - Pass Details

Date: 09 May 2021
Orbit: 636 x 837 km, 96.5° (Epoch: 16 June)

Event Time Altitude Azimuth Distance (km) Brightness Sun altitude
Rises 07:41:18 0° 9° (N) 2,993 8.1 -23.4°
Reaches altitude 10° 07:43:29 10° 8° (N) 2,097 7.1 -23.2°
Maximum altitude 07:48:04 80° 283° (WNW) 706 3.7 -22.6°
Enters shadow 07:48:47 63° 214° (SW) 774 3.7 -22.6°
